Temperature
22 22 22 21 21 20 20 20 20 20 19 19 19 19 19 19 19 19 19 18 18 18 18 18 18 18 18 18 18 18 18 18 18 18 18 18 17 17 17 17 17 17 17
22 22 22 21 21 21 21 20 20 20 20 19 19 19 19 19 18 19 19 19 18 18 18 18 18 18 18 18 18 18 18 18 18 18 18 17 17 17 17 17 17 17 17
22 22 22 21 21 21 21 21 20 20 20 20 19 19 19 19 19 19 19 19 19 18 18 18 18 18 18 18 18 18 18 18 18 18 18 17 17 17 17 17 17 17 17
23 22 22 22 21 21 21 21 21 20 20 20 19 19 19 19 19 19 19 19 19 19 18 18 18 18 18 18 18 18 18 18 18 18 18 18 18 17 17 17 17 17 17
23 23 22 22 22 22 21 21 21 21 20 20 20 19 19 19 19 19 19 19 19 19 19 18 18 18 18 18 18 18 18 18 18 18 18 18 18 18 17 17 17 17 17
23 23 23 23 22 22 21 21 21 21 20 20 20 20 19 19 19 19 19 19 19 19 19 18 18 18 18 18 18 18 18 18 18 18 18 18 18 18 18 17 17 17 17
23 23 23 23 22 22 21 21 21 21 20 20 20 20 20 19 19 19 19 19 19 19 19 19 18 18 18 18 18 18 18 18 18 18 18 18 17 17 17 17 17 17 16
23 23 23 23 22 22 22 21 21 21 21 20 20 20 20 19 19 19 19 19 19 19 19 18 18 18 18 18 18 18 18 18 18 17 17 17 17 17 17 17 17 16 16
23 23 23 23 23 22 22 22 21 21 21 20 20 20 20 19 19 19 19 19 19 18 18 18 18 18 18 18 18 18 18 18 17 17 17 17 17 17 17 17 17 17 16
23 23 23 23 23 22 22 22 21 21 21 21 20 20 20 19 19 19 19 19 18 18 18 18 18 18 18 18 18 18 17 17 17 17 17 17 17 17 17 17 17 17 17
23 23 23 23 23 22 22 22 22 21 21 21 20 20 20 19 19 19 19 18 18 18 18 18 18 18 18 18 18 18 17 17 17 17 17 17 17 17 17 17 17 17 17
23 23 23 22 22 22 22 22 21 21 21 21 20 20 20 19 19 19 19 18 18 18 18 18 18 18 18 17 17 17 17 17 17 17 17 17 17 17 17 17 17 17 17
23 23 22 22 22 22 22 21 21 21 21 20 20 20 20 19 19 19 18 18 18 18 18 18 18 17 17 17 17 17 17 17 17 17 17 17 17 17 17 17 17 17 17
22 22 22 22 22 22 21 21 21 21 20 20 20 20 20 19 19 19 18 18 18 18 18 18 18 17 17 17 17 17 17 17 17 17 17 17 17 17 16 16 16 16 16
22 22 22 21 21 21 21 21 21 21 20 20 20 20 19 19 19 18 18 18 18 18 18 18 17 17 17 17 17 17 17 17 17 17 17 17 16 16 16 16 16 16 16
21 21 21 21 21 21 21 21 21 20 20 20 20 20 19 19 19 18 18 18 18 18 18 17 17 17 17 17 17 17 17 17 17 17 16 16 16 16 16 16 16 16 16
21 21 21 21 21 21 20 20 20 20 20 20 19 19 19 19 19 18 18 18 17 17 17 17 17 17 17 17 17 16 17 17 17 16 16 16 16 16 16 16 16 16 16
21 21 21 21 21 21 20 20 20 20 19 19 19 19 18 18 18 18 18 17 17 17 17 17 17 17 17 17 16 16 16 16 16 16 16 16 16 16 16 16 16 16 16
21 21 21 21 20 20 20 20 19 19 19 19 18 18 18 18 17 17 17 17 17 17 17 17 17 17 17 16 16 16 16 16 16 16 16 16 16 16 16 16 16 16 16
21 20 20 20 20 20 19 19 19 19 19 18 18 18 18 17 17 17 17 17 17 17 17 17 16 16 16 16 16 16 16 16 16 16 16 16 16 16 15 15 15 15 15
20 20 20 19 19 19 19 19 18 18 18 18 18 18 17 17 17 17 17 17 16 16 16 16 16 16 16 16 16 16 16 16 16 16 16 16 16 15 15 15 15 15 15
20 19 19 19 19 18 18 18 18 18 17 17 17 17 17 17 17 16 16 16 16 16 16 16 16 16 16 16 16 16 16 16 16 16 16 15 15 15 15 15 15 15 15
19 19 19 18 18 18 18 17 17 17 17 17 17 17 17 16 16 16 16 16 16 16 16 16 16 16 16 16 16 16 16 16 16 16 15 15 15 15 15 15 15 15 14
18 18 18 18 18 17 17 17 17 17 16 16 16 16 16 16 16 16 16 16 16 15 15 15 16 16 16 16 16 16 15 15 15 15 15 15 15 15 14 14 14 14 14
18 18 18 17 17 17 17 17 16 16 16 16 16 15 15 15 15 15 15 15 15 15 15 15 15 15 16 16 16 15 15 15 15 15 15 15 15 15 14 14 14 14 14
17 17 17 17 16 16 16 16 16 16 15 15 15 15 15 15 15 15 15 15 15 15 15 15 15 15 15 15 15 15 15 15 15 15 15 15 15 14 14 14 14 14 14
Wind_Speed
9 9 9 9 8 6 6 5 4 3 3 2 2 1 1 1 1 2 3 4 4 4 3 2 2 2 3 3 3 2 2 1 2 2 2 3 2 1 0 1 2 3 5
8 9 9 8 8 7 6 5 4 4 3 2 2 2 2 1 1 1 1 3 4 4 4 4 3 3 3 2 2 3 2 1 1 2 2 2 3 2 1 1 2 2 3
11 10 10 9 8 7 7 6 5 4 4 3 2 2 2 1 1 0 1 2 3 4 4 4 4 3 3 3 3 3 3 2 1 1 3 3 2 1 2 1 1 2 2
9 10 10 10 10 9 8 6 6 5 4 3 3 3 3 2 2 2 2 1 3 3 4 4 4 3 3 3 3 3 3 3 2 1 1 2 3 2 0 2 1 0 2
10 11 11 12 10 10 8 7 6 5 4 4 4 3 3 2 1 1 1 1 1 3 3 4 4 3 2 2 3 2 2 2 3 1 1 1 1 2 2 1 2 1 1
9 10 10 9 8 8 8 7 6 4 4 4 4 4 4 3 2 2 2 1 1 2 3 3 3 3 3 2 2 2 3 2 2 1 1 2 2 2 2 2 2 1 2
8 9 9 9 9 9 9 8 7 6 5 4 4 4 5 4 4 4 3 3 2 2 3 3 3 3 3 2 2 2 2 2 2 2 1 1 2 2 2 3 2 1 1
8 8 10 10 10 10 9 8 8 7 6 5 5 4 4 3 3 4 3 4 3 3 3 3 3 3 3 3 2 2 2 1 2 1 1 1 1 2 2 3 3 1 1
7 7 8 8 9 9 8 8 8 6 6 6 5 4 4 4 3 3 3 3 3 2 3 3 3 3 3 3 3 2 2 1 1 1 1 1 1 1 2 3 4 4 2
6 6 6 7 7 7 7 7 7 7 5 5 4 4 4 5 4 3 3 3 3 3 3 3 3 3 3 3 3 2 2 2 1 1 1 1 1 1 1 2 2 3 4
7 7 6 6 6 5 5 6 6 5 5 5 4 4 4 4 4 4 4 4 3 3 4 4 4 3 3 3 3 3 3 2 2 1 1 1 1 1 1 1 2 2 3
6 6 6 5 5 4 4 5 5 5 5 5 4 4 4 4 3 3 4 4 3 3 4 4 4 4 3 3 4 3 3 3 3 3 2 2 1 1 1 1 2 2 3
6 5 5 5 4 4 3 3 4 5 4 4 4 3 3 3 4 4 4 3 4 3 3 3 4 4 3 3 4 4 4 4 4 3 3 3 2 2 2 2 2 2 2
5 4 4 3 4 4 4 4 4 4 4 4 4 3 4 4 4 4 4 4 4 4 4 4 4 4 3 3 3 3 3 3 3 3 3 3 3 3 3 2 2 2 2
4 3 3 3 3 3 3 4 4 3 4 4 4 3 3 2 2 3 3 3 4 4 4 3 3 3 3 3 3 3 3 3 3 2 3 3 3 4 3 2 2 2 2
4 3 3 2 2 2 2 3 3 3 3 4 4 3 3 2 2 3 3 3 3 3 3 3 3 4 3 4 4 4 3 3 3 3 2 2 2 3 3 4 4 4 4
4 3 3 3 3 2 2 3 4 3 4 4 4 4 3 3 3 3 3 3 3 2 3 3 3 4 5 5 5 5 4 4 4 4 4 3 2 2 2 3 3 4 5
3 3 2 2 1 1 1 1 1 3 3 4 3 3 3 3 3 3 3 3 3 3 3 3 4 4 5 7 7 6 4 4 5 5 5 4 3 3 3 2 2 3 4
2 1 2 2 1 1 1 1 0 1 3 4 4 4 4 3 3 4 4 4 3 3 3 3 4 5 6 7 8 6 3 3 5 5 5 5 5 5 5 3 2 3 5
3 2 1 2 1 1 1 2 0 1 3 4 5 5 5 5 5 5 4 3 4 4 4 4 5 5 5 7 8 7 3 4 4 3 4 6 7 7 7 5 4 4 5
3 3 3 2 0 0 1 1 0 2 3 3 3 4 5 6 6 5 4 3 3 4 4 5 5 5 6 7 8 8 5 5 5 4 4 5 7 8 8 6 5 7 5
2 3 3 2 2 1 2 1 1 2 2 2 2 3 4 4 4 4 3 3 4 4 4 4 4 4 4 5 7 9 9 7 6 6 5 5 8 8 8 6 6 7 4
2 1 1 1 2 2 1 0 2 2 2 2 2 3 3 2 2 3 3 3 3 4 4 4 4 4 3 4 7 9 10 9 6 5 6 6 7 6 5 7 7 5 3
1 1 1 1 2 2 2 1 2 1 1 2 2 2 2 2 2 3 3 4 4 4 4 4 5 4 3 4 4 4 5 6 6 4 4 4 4 4 5 4 4 4 4
0 1 1 0 1 2 2 2 1 0 1 2 2 2 2 3 3 3 4 5 5 5 5 5 5 5 5 7 7 5 5 5 5 3 1 1 1 2 3 3 3 3 3
0 1 1 1 2 2 2 2 1 1 0 2 2 2 3 2 2 3 4 5 5 5 6 7 6 6 7 7 7 8 8 8 6 4 3 4 4 5 5 5 4 4 5
Wind_Direction
176 165 164 160 155 151 149 150 148 156 142 131 138 142 162 180 186 201 191 175 168 169 163 148 139 135 139 157 160 136 129 110 115 90 47 18 26 58 194 135 143 168 179
167 167 165 162 163 164 162 159 160 161 158 162 165 170 167 179 188 210 190 179 170 174 169 157 158 152 144 147 146 135 130 144 128 123 105 38 2 355 19 108 160 177 166
173 173 171 170 170 172 173 171 172 171 166 154 128 111 81 57 65 187 229 207 179 175 170 164 162 161 156 163 169 163 151 162 207 154 140 143 204 288 338 319 173 168 176
174 176 175 177 179 181 176 171 173 173 169 155 147 154 161 177 211 204 209 209 181 173 167 159 160 164 158 166 182 171 165 153 177 229 187 166 158 151 308 329 322 203 172
183 185 185 185 183 179 175 174 173 177 174 167 169 168 180 197 203 179 175 185 182 175 165 163 164 171 174 180 177 158 147 152 166 168 163 117 107 136 154 227 293 325 273
184 187 186 180 180 175 173 173 173 182 182 179 177 177 185 187 169 180 187 197 188 187 186 176 174 177 176 184 181 161 155 161 156 157 155 160 164 179 159 183 210 245 287
183 188 184 181 180 177 179 178 177 185 187 184 189 192 194 187 188 194 196 191 186 203 211 194 186 187 187 182 172 164 161 163 167 189 206 198 205 181 163 155 180 202 280
182 188 189 185 182 181 180 181 184 191 191 190 199 200 195 196 203 202 199 197 202 206 200 185 180 180 174 180 166 159 169 152 174 196 206 218 227 182 168 165 156 150 307
169 183 184 179 179 179 180 184 185 190 193 196 197 198 197 197 204 203 198 206 207 199 185 178 178 178 170 169 157 153 169 153 167 193 208 226 253 195 186 172 165 162 191
144 144 154 162 169 176 177 173 178 185 188 188 195 199 205 206 199 188 191 198 205 192 181 184 184 182 173 166 161 166 178 166 201 198 181 235 244 215 220 188 181 169 171
156 154 154 153 151 157 163 168 173 177 185 191 196 197 199 197 189 190 197 196 197 185 185 192 189 185 179 172 166 175 179 184 216 233 195 213 202 214 247 207 187 181 166
151 150 146 136 132 144 158 169 174 179 192 196 193 196 199 192 190 198 200 188 183 190 190 186 186 194 190 179 176 188 186 186 205 223 197 210 200 218 237 204 203 205 193
134 132 131 138 147 157 162 163 172 185 190 184 185 191 192 197 204 207 200 190 184 187 189 183 186 191 191 188 188 191 194 199 208 205 199 214 190 220 245 227 215 221 218
132 137 140 152 167 174 176 173 180 190 190 186 190 195 202 207 206 199 192 192 189 188 193 195 190 189 192 194 194 193 195 198 206 209 208 208 197 207 221 234 225 213 201
120 127 142 157 166 170 180 180 189 192 186 180 189 209 210 202 188 188 196 199 201 202 198 192 188 187 191 201 192 194 193 198 212 226 222 221 209 206 207 214 212 199 197
136 145 154 159 178 186 192 192 197 192 173 176 195 203 197 194 191 190 189 196 205 206 187 188 190 202 221 209 186 179 190 195 202 218 231 233 213 218 214 214 211 200 200
152 155 158 169 187 202 205 201 206 192 177 185 193 193 193 192 195 194 186 199 204 205 206 206 203 218 230 214 202 197 192 198 203 208 216 233 236 216 224 239 245 245 231
152 166 167 160 179 197 223 228 190 187 189 191 197 201 207 206 194 186 201 211 209 209 214 216 219 226 235 221 212 206 206 213 214 214 213 215 228 232 204 219 270 278 271
115 134 164 152 162 207 204 135 108 203 198 202 201 204 206 211 209 212 216 220 217 225 225 221 221 228 242 227 216 201 205 219 230 226 219 211 213 222 194 187 229 274 288
90 83 80 82 105 243 137 118 235 223 224 222 209 203 197 203 215 221 219 224 216 223 223 235 235 232 240 236 223 205 200 217 237 244 234 219 217 218 197 192 203 240 262
106 96 78 68 352 235 104 106 266 256 253 241 212 207 206 209 212 210 214 222 225 230 233 238 246 242 241 236 224 207 202 211 218 226 236 238 230 223 216 209 213 232 238
95 89 72 33 3 42 90 61 295 273 288 271 214 213 219 229 227 205 214 219 219 228 239 241 247 250 246 236 226 217 215 211 209 221 230 237 233 227 226 227 238 240 236
114 98 94 35 360 23 72 94 270 280 298 287 257 233 222 222 216 205 212 222 226 231 241 236 241 255 255 247 237 231 227 223 221 227 227 239 238 230 235 241 241 233 221
99 80 75 25 344 341 358 311 264 274 294 281 274 256 238 239 241 229 217 215 223 237 243 237 239 248 252 250 243 240 238 237 239 242 239 240 244 238 242 253 250 234 224
68 100 111 343 306 317 323 321 300 305 319 288 286 292 272 247 249 250 241 236 230 228 231 240 240 237 245 246 234 227 229 223 221 193 191 230 233 238 255 263 260 248 239
120 62 22 301 294 303 300 292 267 195 213 307 303 284 270 267 253 262 287 283 266 262 245 239 240 248 248 247 237 234 229 216 181 162 199 220 222 226 235 242 250 246 244
Height
1525 1526 1527 1527 1527 1527 1527 1527 1528 1528 1528 1528 1529 1529 1529 1529 1530 1530 1529 1530 1530 1530 1530 1530 1531 1531 1532 1532 1532 1533 1533 1534 1534 1534 1534 1535 1535 1535 1535 1535 1536 1536 1537
1525 1526 1527 1527 1527 1527 1527 1527 1528 1528 1528 1528 1529 1529 1529 1529 1529 1529 1529 1529 1529 1530 1530 1530 1530 1531 1531 1532 1532 1533 1533 1533 1534 1534 1534 1535 1536 1536 1536 1536 1536 1536 1536
1523 1524 1525 1526 1526 1526 1527 1527 1527 1527 1528 1528 1529 1529 1529 1529 1529 1529 1529 1529 1529 1529 1529 1529 1530 1530 1531 1531 1531 1532 1532 1532 1533 1534 1534 1534 1534 1535 1536 1536 1536 1536 1536
1522 1523 1524 1524 1525 1525 1526 1526 1527 1527 1527 1528 1528 1528 1528 1528 1528 1528 1528 1528 1528 1528 1528 1529 1529 1530 1530 1530 1531 1531 1532 1532 1532 1533 1533 1534 1533 1534 1534 1535 1535 1535 1535
1520 1522 1522 1523 1524 1524 1525 1526 1526 1527 1527 1527 1527 1527 1527 1527 1527 1527 1527 1527 1527 1527 1528 1528 1528 1529 1529 1529 1530 1530 1531 1531 1531 1531 1532 1532 1533 1533 1533 1533 1534 1534 1534
1519 1520 1521 1522 1523 1524 1525 1525 1526 1526 1526 1527 1527 1527 1527 1527 1527 1526 1526 1526 1527 1527 1527 1527 1527 1527 1527 1528 1528 1529 1530 1530 1530 1530 1531 1531 1531 1531 1532 1532 1532 1533 1533
1517 1519 1520 1521 1522 1523 1523 1524 1525 1525 1526 1526 1526 1526 1526 1526 1526 1525 1525 1525 1526 1526 1526 1526 1526 1526 1526 1527 1527 1528 1528 1529 1529 1529 1529 1530 1530 1531 1531 1531 1531 1531 1532
1515 1516 1517 1519 1520 1521 1522 1523 1524 1524 1525 1525 1525 1525 1525 1525 1525 1525 1525 1524 1525 1525 1525 1525 1525 1525 1525 1525 1526 1526 1527 1527 1527 1528 1528 1528 1529 1529 1529 1530 1530 1530 1530
1513 1515 1516 1517 1519 1520 1521 1522 1523 1523 1524 1524 1525 1524 1524 1524 1524 1524 1524 1523 1524 1524 1524 1524 1524 1523 1524 1524 1524 1525 1526 1526 1526 1526 1527 1527 1527 1527 1528 1528 1528 1529 1528
1512 1513 1515 1517 1518 1519 1520 1521 1522 1522 1523 1523 1523 1523 1523 1522 1522 1522 1522 1522 1522 1523 1523 1523 1522 1522 1522 1523 1523 1524 1524 1525 1524 1525 1525 1525 1525 1525 1526 1526 1526 1527 1527
1512 1513 1514 1516 1517 1518 1519 1520 1520 1521 1521 1521 1522 1521 1521 1521 1521 1521 1521 1521 1521 1521 1521 1520 1520 1520 1520 1521 1521 1522 1522 1523 1523 1523 1523 1523 1523 1523 1524 1524 1524 1524 1525
1512 1513 1514 1516 1517 1518 1518 1519 1519 1519 1520 1520 1520 1520 1519 1519 1519 1519 1519 1519 1519 1519 1519 1519 1518 1519 1519 1519 1519 1520 1520 1521 1521 1521 1521 1521 1521 1521 1522 1522 1522 1522 1522
1512 1514 1514 1515 1516 1517 1517 1517 1518 1518 1519 1519 1519 1518 1518 1517 1517 1517 1517 1517 1517 1517 1517 1517 1517 1517 1517 1518 1518 1518 1519 1519 1519 1519 1519 1519 1519 1519 1519 1519 1519 1519 1520
1512 1513 1513 1514 1515 1516 1516 1516 1517 1517 1517 1517 1517 1516 1516 1515 1515 1515 1515 1515 1515 1515 1515 1515 1516 1515 1515 1515 1516 1516 1517 1517 1517 1517 1517 1518 1517 1517 1517 1517 1517 1517 1517
1512 1513 1513 1514 1514 1514 1514 1515 1515 1515 1515 1515 1515 1515 1514 1514 1514 1513 1513 1513 1513 1513 1513 1513 1513 1513 1513 1513 1514 1514 1515 1515 1514 1515 1515 1515 1515 1515 1515 1515 1515 1514 1514
1511 1512 1512 1512 1513 1512 1512 1513 1513 1513 1513 1513 1513 1513 1512 1512 1511 1511 1511 1511 1510 1510 1510 1510 1510 1511 1511 1511 1511 1512 1512 1512 1512 1512 1512 1513 1513 1513 1513 1512 1512 1512 1511
1510 1510 1511 1511 1511 1511 1511 1510 1511 1511 1511 1511 1511 1510 1510 1510 1509 1509 1509 1508 1508 1507 1507 1508 1508 1508 1508 1508 1509 1509 1509 1509 1509 1509 1510 1510 1510 1510 1510 1509 1509 1508 1508
1510 1510 1510 1509 1509 1509 1509 1509 1508 1508 1508 1508 1508 1508 1508 1508 1507 1506 1506 1506 1506 1505 1505 1505 1505 1505 1505 1505 1505 1505 1506 1505 1506 1506 1506 1506 1506 1506 1506 1506 1505 1505 1505
1509 1509 1509 1508 1508 1508 1507 1507 1506 1505 1505 1505 1505 1505 1505 1505 1504 1503 1503 1503 1503 1502 1502 1502 1502 1502 1502 1502 1502 1502 1502 1502 1502 1503 1503 1503 1503 1503 1503 1503 1502 1502 1501
1508 1507 1507 1507 1506 1506 1505 1504 1503 1503 1502 1502 1501 1501 1501 1501 1500 1500 1499 1499 1499 1499 1498 1498 1498 1498 1498 1498 1498 1499 1498 1498 1499 1499 1499 1500 1500 1500 1500 1499 1499 1498 1497
1506 1506 1505 1505 1505 1504 1503 1502 1501 1500 1499 1499 1499 1498 1498 1497 1497 1496 1496 1496 1496 1495 1494 1494 1494 1494 1494 1494 1494 1494 1494 1494 1494 1494 1495 1496 1496 1496 1496 1495 1495 1495 1495
1504 1504 1503 1503 1503 1502 1501 1499 1498 1497 1496 1496 1495 1495 1495 1494 1493 1493 1492 1492 1492 1491 1490 1490 1489 1489 1490 1490 1490 1490 1491 1491 1490 1490 1491 1492 1492 1492 1491 1491 1491 1491 1491
1503 1502 1502 1501 1500 1499 1499 1497 1496 1495 1494 1493 1492 1492 1491 1491 1490 1489 1489 1489 1488 1487 1486 1486 1485 1485 1485 1485 1486 1486 1486 1486 1486 1486 1487 1488 1488 1488 1487 1487 1487 1486 1486
1501 1500 1500 1499 1498 1497 1496 1495 1494 1493 1491 1490 1489 1488 1488 1487 1487 1486 1486 1485 1484 1483 1482 1482 1481 1481 1481 1481 1481 1481 1481 1481 1481 1482 1483 1483 1483 1483 1482 1482 1482 1481 1481
1499 1498 1498 1497 1495 1495 1494 1492 1491 1490 1489 1487 1486 1485 1484 1484 1483 1482 1482 1482 1481 1480 1480 1479 1478 1477 1476 1477 1477 1477 1477 1477 1477 1477 1478 1478 1478 1478 1477 1477 1477 1477 1477
1498 1497 1496 1495 1494 1492 1491 1490 1488 1488 1486 1485 1484 1483 1482 1481 1480 1479 1479 1478 1478 1477 1476 1476 1475 1474 1473 1473 1473 1473 1473 1474 1473 1473 1472 1472 1472 1472 1472 1472 1472 1472 1471